Year,Month,Day,Hour,Minute,Value (Times are PST for temperature in C)
2009,05,31,00,00,12.40
2009,05,31,00,01,12.30
2009,05,31,00,02,12.40
2009,05,31,00,03,12.40
2009,05,31,00,04,12.40
2009,05,31,00,05,12.40
2009,05,31,00,06,12.40
2009,05,31,00,07,12.30
2009,05,31,00,08,12.30
2009,05,31,00,09,12.30
2009,05,31,00,10,12.30
2009,05,31,00,11,12.30
2009,05,31,00,12,12.30
2009,05,31,00,13,12.30
2009,05,31,00,14,12.30
2009,05,31,00,15,12.30
2009,05,31,00,16,12.30
2009,05,31,00,17,12.30
2009,05,31,00,18,12.30
2009,05,31,00,19,12.20
2009,05,31,00,20,12.30
2009,05,31,00,21,12.30
2009,05,31,00,22,12.30
2009,05,31,00,23,12.30
2009,05,31,00,24,12.30
2009,05,31,00,25,12.30
2009,05,31,00,26,12.30
2009,05,31,00,27,12.30
2009,05,31,00,28,12.30
2009,05,31,00,29,12.30
2009,05,31,00,30,12.30
2009,05,31,00,31,12.30
2009,05,31,00,32,12.20
2009,05,31,00,33,12.20
2009,05,31,00,34,12.20
2009,05,31,00,35,12.20
2009,05,31,00,36,12.20
2009,05,31,00,37,12.20
2009,05,31,00,38,12.10
2009,05,31,00,39,12.10
2009,05,31,00,40,12.10
2009,05,31,00,41,12.10
2009,05,31,00,42,12.10
2009,05,31,00,43,12.10
2009,05,31,00,44,12.10
2009,05,31,00,45,12.00
2009,05,31,00,46,12.00
2009,05,31,00,47,12.00
2009,05,31,00,48,11.90
2009,05,31,00,49,11.90
2009,05,31,00,50,11.90
2009,05,31,00,51,11.90
2009,05,31,00,52,11.90
2009,05,31,00,53,11.80
2009,05,31,00,54,11.80
2009,05,31,00,55,11.80
2009,05,31,00,56,11.80
2009,05,31,00,57,11.80
2009,05,31,00,58,11.80
2009,05,31,00,59,11.80
2009,05,31,01,00,11.80
2009,05,31,01,01,11.80
2009,05,31,01,02,11.80
2009,05,31,01,03,11.80
2009,05,31,01,04,11.80
2009,05,31,01,05,11.70
2009,05,31,01,06,11.70
2009,05,31,01,07,11.70
2009,05,31,01,08,11.70
2009,05,31,01,09,11.70
2009,05,31,01,10,11.70
2009,05,31,01,11,11.70
2009,05,31,01,12,11.70
2009,05,31,01,13,11.70
2009,05,31,01,14,11.70
2009,05,31,01,15,11.70
2009,05,31,01,16,11.70
2009,05,31,01,17,11.70
2009,05,31,01,18,11.70
2009,05,31,01,19,11.80
2009,05,31,01,20,11.80
2009,05,31,01,21,11.80
2009,05,31,01,22,11.80
2009,05,31,01,23,11.80
2009,05,31,01,24,11.80
2009,05,31,01,25,11.80
2009,05,31,01,26,11.80
2009,05,31,01,27,11.80
2009,05,31,01,28,11.80
2009,05,31,01,29,11.80
2009,05,31,01,30,11.80
2009,05,31,01,31,11.80
2009,05,31,01,32,11.80
2009,05,31,01,33,11.80
2009,05,31,01,34,11.80
2009,05,31,01,35,11.80
2009,05,31,01,36,11.80
2009,05,31,01,37,11.80
2009,05,31,01,38,11.80
2009,05,31,01,39,11.80
2009,05,31,01,40,11.80
2009,05,31,01,41,11.80
2009,05,31,01,42,11.80
2009,05,31,01,43,11.80
2009,05,31,01,44,11.80
2009,05,31,01,45,11.80
2009,05,31,01,46,11.80
2009,05,31,01,47,11.80
2009,05,31,01,48,11.80
2009,05,31,01,49,11.80
2009,05,31,01,50,11.80
2009,05,31,01,51,11.80
2009,05,31,01,52,11.80
2009,05,31,01,53,11.80
2009,05,31,01,54,11.80
2009,05,31,01,55,11.80
2009,05,31,01,56,11.80
2009,05,31,01,57,11.80
2009,05,31,01,58,11.80
2009,05,31,01,59,11.80
2009,05,31,02,00,11.80
2009,05,31,02,01,11.80
2009,05,31,02,02,11.80
2009,05,31,02,03,11.80
2009,05,31,02,04,11.80
2009,05,31,02,05,11.80
2009,05,31,02,06,11.80
2009,05,31,02,07,11.80
2009,05,31,02,08,11.80
2009,05,31,02,09,11.80
2009,05,31,02,10,11.80
2009,05,31,02,11,11.80
2009,05,31,02,12,11.80
2009,05,31,02,13,11.70
2009,05,31,02,14,11.70
2009,05,31,02,15,11.70
2009,05,31,02,16,11.70
2009,05,31,02,17,11.70
2009,05,31,02,18,11.70
2009,05,31,02,19,11.70
2009,05,31,02,20,11.70
2009,05,31,02,21,11.60
2009,05,31,02,22,11.60
2009,05,31,02,23,11.60
2009,05,31,02,24,11.60
2009,05,31,02,25,11.60
2009,05,31,02,26,11.60
2009,05,31,02,27,11.50
2009,05,31,02,28,11.50
2009,05,31,02,29,11.50
2009,05,31,02,30,11.50
2009,05,31,02,31,11.40
2009,05,31,02,32,11.40
2009,05,31,02,33,11.40
2009,05,31,02,34,11.40
2009,05,31,02,35,11.40
2009,05,31,02,36,11.30
2009,05,31,02,37,11.30
2009,05,31,02,38,11.30
2009,05,31,02,39,11.30
2009,05,31,02,40,11.30
2009,05,31,02,41,11.30
2009,05,31,02,42,11.20
2009,05,31,02,43,11.20
2009,05,31,02,44,11.20
2009,05,31,02,45,11.20
2009,05,31,02,46,11.20
2009,05,31,02,47,11.20
2009,05,31,02,48,11.20
2009,05,31,02,49,11.10
2009,05,31,02,50,11.10
2009,05,31,02,51,11.10
2009,05,31,02,52,11.10
2009,05,31,02,53,11.10
2009,05,31,02,54,11.10
2009,05,31,02,55,11.00
2009,05,31,02,56,11.00
2009,05,31,02,57,10.90
2009,05,31,02,58,10.90
2009,05,31,02,59,10.80
2009,05,31,03,00,10.80
2009,05,31,03,01,10.80
2009,05,31,03,02,10.80
2009,05,31,03,03,10.80
2009,05,31,03,04,10.70
2009,05,31,03,05,10.70
2009,05,31,03,06,10.80
2009,05,31,03,07,10.80
2009,05,31,03,08,10.80
2009,05,31,03,09,10.80
2009,05,31,03,10,10.80
2009,05,31,03,11,10.80
2009,05,31,03,12,10.80
2009,05,31,03,13,10.80
2009,05,31,03,14,10.80
2009,05,31,03,15,10.80
2009,05,31,03,16,10.80
2009,05,31,03,17,10.70
2009,05,31,03,18,10.70
2009,05,31,03,19,10.70
2009,05,31,03,20,10.70
2009,05,31,03,21,10.70
2009,05,31,03,22,10.70
2009,05,31,03,23,10.70
2009,05,31,03,24,10.70
2009,05,31,03,25,10.70
2009,05,31,03,26,10.70
2009,05,31,03,27,10.70
2009,05,31,03,28,10.70
2009,05,31,03,29,10.70
2009,05,31,03,30,10.70
2009,05,31,03,31,10.70
2009,05,31,03,32,10.70
2009,05,31,03,33,10.70
2009,05,31,03,34,10.70
2009,05,31,03,35,10.70
2009,05,31,03,36,10.70
2009,05,31,03,37,10.70
2009,05,31,03,38,10.70
2009,05,31,03,39,10.70
2009,05,31,03,40,10.70
2009,05,31,03,41,10.70
2009,05,31,03,42,10.60
2009,05,31,03,43,10.60
2009,05,31,03,44,10.60
2009,05,31,03,45,10.60
2009,05,31,03,46,10.60
2009,05,31,03,47,10.60
2009,05,31,03,48,10.60
2009,05,31,03,49,10.50
2009,05,31,03,50,10.50
2009,05,31,03,51,10.50
2009,05,31,03,52,10.40
2009,05,31,03,53,10.40
2009,05,31,03,54,10.40
2009,05,31,03,55,10.40
2009,05,31,03,56,10.40
2009,05,31,03,57,10.40
2009,05,31,03,58,10.40
2009,05,31,03,59,10.40
2009,05,31,04,00,10.40
2009,05,31,04,01,10.40
2009,05,31,04,02,10.40
2009,05,31,04,03,10.40
2009,05,31,04,04,10.40
2009,05,31,04,05,10.40
2009,05,31,04,06,10.30
2009,05,31,04,07,10.30
2009,05,31,04,08,10.30
2009,05,31,04,09,10.30
2009,05,31,04,10,10.30
2009,05,31,04,11,10.30
2009,05,31,04,12,10.30
2009,05,31,04,13,10.30
2009,05,31,04,14,10.30
2009,05,31,04,15,10.30
2009,05,31,04,16,10.30
2009,05,31,04,17,10.30
2009,05,31,04,18,10.30
2009,05,31,04,19,10.30
2009,05,31,04,20,10.20
2009,05,31,04,21,10.20
2009,05,31,04,22,10.20
2009,05,31,04,23,10.20
2009,05,31,04,24,10.20
2009,05,31,04,25,10.20
2009,05,31,04,26,10.20
2009,05,31,04,27,10.20
2009,05,31,04,28,10.20
2009,05,31,04,29,10.20
2009,05,31,04,30,10.10
2009,05,31,04,31,10.10
2009,05,31,04,32,10.10
2009,05,31,04,33,10.10
2009,05,31,04,34,10.10
2009,05,31,04,35,10.10
2009,05,31,04,36,10.10
2009,05,31,04,37,10.10
2009,05,31,04,38,10.10
2009,05,31,04,39,10.10
2009,05,31,04,40,10.10
2009,05,31,04,41,10.10
2009,05,31,04,42,10.10
2009,05,31,04,43,10.10
2009,05,31,04,44,10.10
2009,05,31,04,45,10.10
2009,05,31,04,46,10.10
2009,05,31,04,47,10.10
2009,05,31,04,48,10.10
2009,05,31,04,49,10.10
2009,05,31,04,50,10.10
2009,05,31,04,51,10.10
2009,05,31,04,52,10.10
2009,05,31,04,53,10.10
2009,05,31,04,54,10.10
2009,05,31,04,55,10.10
2009,05,31,04,56,10.00
2009,05,31,04,57,10.00
2009,05,31,04,58,10.00
2009,05,31,04,59,10.00
2009,05,31,05,00,10.00
2009,05,31,05,01,10.00
2009,05,31,05,02,10.00
2009,05,31,05,03,9.90
2009,05,31,05,04,9.90
2009,05,31,05,05,9.90
2009,05,31,05,06,9.90
2009,05,31,05,07,9.90
2009,05,31,05,08,9.90
2009,05,31,05,09,9.90
2009,05,31,05,10,9.90
2009,05,31,05,11,9.90
2009,05,31,05,12,9.90
2009,05,31,05,13,9.90
2009,05,31,05,14,9.90
2009,05,31,05,15,9.90
2009,05,31,05,16,9.90
2009,05,31,05,17,9.90
2009,05,31,05,18,9.90
2009,05,31,05,19,9.90
2009,05,31,05,20,9.90
2009,05,31,05,21,9.90
2009,05,31,05,22,9.90
2009,05,31,05,23,9.90
2009,05,31,05,24,9.90
2009,05,31,05,25,9.90
2009,05,31,05,26,9.90
2009,05,31,05,27,9.90
2009,05,31,05,28,9.90
2009,05,31,05,29,9.90
2009,05,31,05,30,9.90
2009,05,31,05,31,9.90
2009,05,31,05,32,9.90
2009,05,31,05,33,9.90
2009,05,31,05,34,9.90
2009,05,31,05,35,10.00
2009,05,31,05,36,10.00
2009,05,31,05,37,10.00
2009,05,31,05,38,10.00
2009,05,31,05,39,10.00
2009,05,31,05,40,10.00
2009,05,31,05,41,10.00
2009,05,31,05,42,10.00
2009,05,31,05,43,10.00
2009,05,31,05,44,10.00
2009,05,31,05,45,10.00
2009,05,31,05,46,10.00
2009,05,31,05,47,10.00
2009,05,31,05,48,10.00
2009,05,31,05,49,10.00
2009,05,31,05,50,10.00
2009,05,31,05,51,10.00
2009,05,31,05,52,10.00
2009,05,31,05,53,9.90
2009,05,31,05,54,10.00
2009,05,31,05,55,10.00
2009,05,31,05,56,10.00
2009,05,31,05,57,10.00
2009,05,31,05,58,10.00
2009,05,31,05,59,10.00
2009,05,31,06,00,10.10
2009,05,31,06,01,10.10
2009,05,31,06,02,10.10
2009,05,31,06,03,10.10
2009,05,31,06,04,10.10
2009,05,31,06,05,10.20
2009,05,31,06,06,10.20
2009,05,31,06,07,10.20
2009,05,31,06,08,10.30
2009,05,31,06,09,10.30
2009,05,31,06,10,10.30
2009,05,31,06,11,10.30
2009,05,31,06,12,10.30
2009,05,31,06,13,10.40
2009,05,31,06,14,10.40
2009,05,31,06,15,10.40
2009,05,31,06,16,10.50
2009,05,31,06,17,10.50
2009,05,31,06,18,10.60
2009,05,31,06,19,10.60
2009,05,31,06,20,10.60
2009,05,31,06,21,10.60
2009,05,31,06,22,10.70
2009,05,31,06,23,10.70
2009,05,31,06,24,10.80
2009,05,31,06,25,10.80
2009,05,31,06,26,10.90
2009,05,31,06,27,11.00
2009,05,31,06,28,11.00
2009,05,31,06,29,11.10
2009,05,31,06,30,11.10
2009,05,31,06,31,11.20
2009,05,31,06,32,11.20
2009,05,31,06,33,11.30
2009,05,31,06,34,11.30
2009,05,31,06,35,11.30
2009,05,31,06,36,11.40
2009,05,31,06,37,11.40
2009,05,31,06,38,11.50
2009,05,31,06,39,11.50
2009,05,31,06,40,11.60
2009,05,31,06,41,11.60
2009,05,31,06,42,11.70
2009,05,31,06,43,11.80
2009,05,31,06,44,11.90
2009,05,31,06,45,12.00
2009,05,31,06,46,12.20
2009,05,31,06,47,12.30
2009,05,31,06,48,12.40
2009,05,31,06,49,12.60
2009,05,31,06,50,12.70
2009,05,31,06,51,12.80
2009,05,31,06,52,12.90
2009,05,31,06,53,13.00
2009,05,31,06,54,13.10
2009,05,31,06,55,13.20
2009,05,31,06,56,13.30
2009,05,31,06,57,13.40
2009,05,31,06,58,13.50
2009,05,31,06,59,13.60
2009,05,31,07,00,13.80
2009,05,31,07,01,13.90
2009,05,31,07,02,14.00
2009,05,31,07,03,14.10
2009,05,31,07,04,14.20
2009,05,31,07,05,14.30
2009,05,31,07,06,14.40
2009,05,31,07,07,14.40
2009,05,31,07,08,14.50
2009,05,31,07,09,14.60
2009,05,31,07,10,14.60
2009,05,31,07,11,14.70
2009,05,31,07,12,14.90
2009,05,31,07,13,15.00
2009,05,31,07,14,15.00
2009,05,31,07,15,15.00
2009,05,31,07,16,15.00
2009,05,31,07,17,15.20
2009,05,31,07,18,15.30
2009,05,31,07,19,15.30
2009,05,31,07,20,15.40
2009,05,31,07,21,15.40
2009,05,31,07,22,15.50
2009,05,31,07,23,15.50
2009,05,31,07,24,15.60
2009,05,31,07,25,15.70
2009,05,31,07,26,15.70
2009,05,31,07,27,15.80
2009,05,31,07,28,15.80
2009,05,31,07,29,15.90
2009,05,31,07,30,15.90
2009,05,31,07,31,16.00
2009,05,31,07,32,16.10
2009,05,31,07,33,16.20
2009,05,31,07,34,16.20
2009,05,31,07,35,16.20
2009,05,31,07,36,16.30
2009,05,31,07,37,16.30
2009,05,31,07,38,16.30
2009,05,31,07,39,16.40
2009,05,31,07,40,16.40
2009,05,31,07,41,16.40
2009,05,31,07,42,16.40
2009,05,31,07,43,16.40
2009,05,31,07,44,16.40
2009,05,31,07,45,16.50
2009,05,31,07,46,16.50
2009,05,31,07,47,16.50
2009,05,31,07,48,16.50
2009,05,31,07,49,16.40
2009,05,31,07,50,16.40
2009,05,31,07,51,16.40
2009,05,31,07,52,16.40
2009,05,31,07,53,16.40
2009,05,31,07,54,16.50
2009,05,31,07,55,16.40
2009,05,31,07,56,16.40
2009,05,31,07,57,16.40
2009,05,31,07,58,16.40
2009,05,31,07,59,16.50
2009,05,31,08,00,16.50
2009,05,31,08,01,16.50
2009,05,31,08,02,16.60
2009,05,31,08,03,16.70
2009,05,31,08,04,16.70
2009,05,31,08,05,16.70
2009,05,31,08,06,16.80
2009,05,31,08,07,16.80
2009,05,31,08,08,16.80
2009,05,31,08,09,16.90
2009,05,31,08,10,16.90
2009,05,31,08,11,16.90
2009,05,31,08,12,17.00
2009,05,31,08,13,17.00
2009,05,31,08,14,17.00
2009,05,31,08,15,17.00
2009,05,31,08,16,17.00
2009,05,31,08,17,17.10
2009,05,31,08,18,17.10
2009,05,31,08,19,17.10
2009,05,31,08,20,17.10
2009,05,31,08,21,17.10
2009,05,31,08,22,17.10
2009,05,31,08,23,17.20
2009,05,31,08,24,17.20
2009,05,31,08,25,17.20
2009,05,31,08,26,17.20
2009,05,31,08,27,17.30
2009,05,31,08,28,17.30
2009,05,31,08,29,17.40
2009,05,31,08,30,17.40
2009,05,31,08,31,17.40
2009,05,31,08,32,17.50
2009,05,31,08,33,17.60
2009,05,31,08,34,17.70
2009,05,31,08,35,17.80
2009,05,31,08,36,17.80
2009,05,31,08,37,17.90
2009,05,31,08,38,18.00
2009,05,31,08,39,18.00
2009,05,31,08,40,18.10
2009,05,31,08,41,18.20
2009,05,31,08,42,18.20
2009,05,31,08,43,18.30
2009,05,31,08,44,18.40
2009,05,31,08,45,18.40
2009,05,31,08,46,18.50
2009,05,31,08,47,18.50
2009,05,31,08,48,18.60
2009,05,31,08,49,18.70
2009,05,31,08,50,18.80
2009,05,31,08,51,18.80
2009,05,31,08,52,18.70
2009,05,31,08,53,18.70
2009,05,31,08,54,18.70
2009,05,31,08,55,18.70
2009,05,31,08,56,18.70
2009,05,31,08,57,18.80
2009,05,31,08,58,18.80
2009,05,31,08,59,18.70
2009,05,31,09,00,18.70
2009,05,31,09,01,18.70
2009,05,31,09,02,18.70
2009,05,31,09,03,18.70
2009,05,31,09,04,18.80
2009,05,31,09,05,18.90
2009,05,31,09,06,19.00
2009,05,31,09,07,19.10
2009,05,31,09,08,19.10
2009,05,31,09,09,19.10
2009,05,31,09,10,19.10
2009,05,31,09,11,19.10
2009,05,31,09,12,18.90
2009,05,31,09,13,18.80
2009,05,31,09,14,18.60
2009,05,31,09,15,18.60
2009,05,31,09,16,18.60
2009,05,31,09,17,18.60
2009,05,31,09,18,18.70
2009,05,31,09,19,18.70
2009,05,31,09,20,18.70
2009,05,31,09,21,18.80
2009,05,31,09,22,18.90
2009,05,31,09,23,18.90
2009,05,31,09,24,19.00
2009,05,31,09,25,19.00
2009,05,31,09,26,19.00
2009,05,31,09,27,19.10
2009,05,31,09,28,19.10
2009,05,31,09,29,19.10
2009,05,31,09,30,19.20
2009,05,31,09,31,19.20
2009,05,31,09,32,19.20
2009,05,31,09,33,19.10
2009,05,31,09,34,19.10
2009,05,31,09,35,19.10
2009,05,31,09,36,19.10
2009,05,31,09,37,19.00
2009,05,31,09,38,19.00
2009,05,31,09,39,19.10
2009,05,31,09,40,19.10
2009,05,31,09,41,19.10
2009,05,31,09,42,19.10
2009,05,31,09,43,19.20
2009,05,31,09,44,19.20
2009,05,31,09,45,19.20
2009,05,31,09,46,19.30
2009,05,31,09,47,19.40
2009,05,31,09,48,19.30
2009,05,31,09,49,19.20
2009,05,31,09,50,19.20
2009,05,31,09,51,19.20
2009,05,31,09,52,19.20
2009,05,31,09,53,19.20
2009,05,31,09,54,19.30
2009,05,31,09,55,19.30
2009,05,31,09,56,19.40
2009,05,31,09,57,19.50
2009,05,31,09,58,19.60
2009,05,31,09,59,19.60
2009,05,31,10,00,19.70
2009,05,31,10,01,19.70
2009,05,31,10,02,19.80
2009,05,31,10,03,19.90
2009,05,31,10,04,19.90
2009,05,31,10,05,19.90
2009,05,31,10,06,20.00
2009,05,31,10,07,20.10
2009,05,31,10,08,20.10
2009,05,31,10,09,20.20
2009,05,31,10,10,20.20
2009,05,31,10,11,20.30
2009,05,31,10,12,20.30
2009,05,31,10,13,20.40
2009,05,31,10,14,20.50
2009,05,31,10,15,20.60
2009,05,31,10,16,20.50
2009,05,31,10,17,20.40
2009,05,31,10,18,20.30
2009,05,31,10,19,20.30
2009,05,31,10,20,20.20
2009,05,31,10,21,20.10
2009,05,31,10,22,20.10
2009,05,31,10,23,20.10
2009,05,31,10,24,20.20
2009,05,31,10,25,20.30
2009,05,31,10,26,20.40
2009,05,31,10,27,20.50
2009,05,31,10,28,20.70
2009,05,31,10,29,20.90
2009,05,31,10,30,21.00
2009,05,31,10,31,21.20
2009,05,31,10,32,21.40
2009,05,31,10,33,21.50
2009,05,31,10,34,21.70
2009,05,31,10,35,21.80
2009,05,31,10,36,21.80
2009,05,31,10,37,21.70
2009,05,31,10,38,21.70
2009,05,31,10,39,21.60
2009,05,31,10,40,21.70
2009,05,31,10,41,21.70
2009,05,31,10,42,21.60
2009,05,31,10,43,21.60
2009,05,31,10,44,21.60
2009,05,31,10,45,21.60
2009,05,31,10,46,21.70
2009,05,31,10,47,21.70
2009,05,31,10,48,21.70
2009,05,31,10,49,21.50
2009,05,31,10,50,21.40
2009,05,31,10,51,21.30
2009,05,31,10,52,21.30
2009,05,31,10,53,21.40
2009,05,31,10,54,21.40
2009,05,31,10,55,21.40
2009,05,31,10,56,21.40
2009,05,31,10,57,21.40
2009,05,31,10,58,21.50
2009,05,31,10,59,21.60
2009,05,31,11,00,21.70
2009,05,31,11,01,21.60
2009,05,31,11,02,21.60
2009,05,31,11,03,21.40
2009,05,31,11,04,21.30
2009,05,31,11,05,21.30
2009,05,31,11,06,21.30
2009,05,31,11,07,21.30
2009,05,31,11,08,21.40
2009,05,31,11,09,21.50
2009,05,31,11,10,21.70
2009,05,31,11,11,21.80
2009,05,31,11,12,21.90
2009,05,31,11,13,22.00
2009,05,31,11,14,22.10
2009,05,31,11,15,22.20
2009,05,31,11,16,22.20
2009,05,31,11,17,22.10
2009,05,31,11,18,22.10
2009,05,31,11,19,22.20
2009,05,31,11,20,22.10
2009,05,31,11,21,22.10
2009,05,31,11,22,22.10
2009,05,31,11,23,22.10
2009,05,31,11,24,22.00
2009,05,31,11,25,22.00
2009,05,31,11,26,22.00
2009,05,31,11,27,22.00
2009,05,31,11,28,22.00
2009,05,31,11,29,22.10
2009,05,31,11,30,22.10
2009,05,31,11,31,22.20
2009,05,31,11,32,22.30
2009,05,31,11,33,22.30
2009,05,31,11,34,22.30
2009,05,31,11,35,22.30
2009,05,31,11,36,22.20
2009,05,31,11,37,22.20
2009,05,31,11,38,22.10
2009,05,31,11,39,22.00
2009,05,31,11,40,22.00
2009,05,31,11,41,21.90
2009,05,31,11,42,21.90
2009,05,31,11,43,21.90
2009,05,31,11,44,21.90
2009,05,31,11,45,21.80
2009,05,31,11,46,21.80
2009,05,31,11,47,21.80
2009,05,31,11,48,21.80
2009,05,31,11,49,21.80
2009,05,31,11,50,21.90
2009,05,31,11,51,21.90
2009,05,31,11,52,21.90
2009,05,31,11,53,21.90
2009,05,31,11,54,22.00
2009,05,31,11,55,22.00
2009,05,31,11,56,22.00
2009,05,31,11,57,22.10
2009,05,31,11,58,22.00
2009,05,31,11,59,22.00
2009,05,31,12,00,22.10
2009,05,31,12,01,22.10
2009,05,31,12,02,22.10
2009,05,31,12,03,22.10
2009,05,31,12,04,22.20
2009,05,31,12,05,22.20
2009,05,31,12,06,22.30
2009,05,31,12,07,22.50
2009,05,31,12,08,22.50
2009,05,31,12,09,22.40
2009,05,31,12,10,22.20
2009,05,31,12,11,22.00
2009,05,31,12,12,21.90
2009,05,31,12,13,21.80
2009,05,31,12,14,21.60
2009,05,31,12,15,21.40
2009,05,31,12,16,21.10
2009,05,31,12,17,20.80
2009,05,31,12,18,20.60
2009,05,31,12,19,20.70
2009,05,31,12,20,20.70
2009,05,31,12,21,20.80
2009,05,31,12,22,20.80
2009,05,31,12,23,20.80
2009,05,31,12,24,20.70
2009,05,31,12,25,20.70
2009,05,31,12,26,20.70
2009,05,31,12,27,20.70
2009,05,31,12,28,20.60
2009,05,31,12,29,20.60
2009,05,31,12,30,20.60
2009,05,31,12,31,20.60
2009,05,31,12,32,20.70
2009,05,31,12,33,20.80
2009,05,31,12,34,20.90
2009,05,31,12,35,21.00
2009,05,31,12,36,21.10
2009,05,31,12,37,21.20
2009,05,31,12,38,21.30
2009,05,31,12,39,21.40
2009,05,31,12,40,21.50
2009,05,31,12,41,21.60
2009,05,31,12,42,21.80
2009,05,31,12,43,21.80
2009,05,31,12,44,21.80
2009,05,31,12,45,21.80
2009,05,31,12,46,21.80
2009,05,31,12,47,21.80
2009,05,31,12,48,21.80
2009,05,31,12,49,21.90
2009,05,31,12,50,21.90
2009,05,31,12,51,22.00
2009,05,31,12,52,22.00
2009,05,31,12,53,22.10
2009,05,31,12,54,22.20
2009,05,31,12,55,22.20
2009,05,31,12,56,22.00
2009,05,31,12,57,21.80
2009,05,31,12,58,21.80
2009,05,31,12,59,21.70
2009,05,31,13,00,21.60
2009,05,31,13,01,21.60
2009,05,31,13,02,21.60
2009,05,31,13,03,21.50
2009,05,31,13,04,21.40
2009,05,31,13,05,21.30
2009,05,31,13,06,21.30
2009,05,31,13,07,21.30
2009,05,31,13,08,21.30
2009,05,31,13,09,21.40
2009,05,31,13,10,21.40
2009,05,31,13,11,21.40
2009,05,31,13,12,21.40
2009,05,31,13,13,21.40
2009,05,31,13,14,21.40
2009,05,31,13,15,21.40
2009,05,31,13,16,21.40
2009,05,31,13,17,21.50
2009,05,31,13,18,21.70
2009,05,31,13,19,21.80
2009,05,31,13,20,21.80
2009,05,31,13,21,21.80
2009,05,31,13,22,21.80
2009,05,31,13,23,21.70
2009,05,31,13,24,21.60
2009,05,31,13,25,21.60
2009,05,31,13,26,21.60
2009,05,31,13,27,21.50
2009,05,31,13,28,21.50
2009,05,31,13,29,21.60
2009,05,31,13,30,21.60
2009,05,31,13,31,21.50
2009,05,31,13,32,21.40
2009,05,31,13,33,21.30
2009,05,31,13,34,21.30
2009,05,31,13,35,21.30
2009,05,31,13,36,21.30
2009,05,31,13,37,21.30
2009,05,31,13,38,21.40
2009,05,31,13,39,21.30
2009,05,31,13,40,21.30
2009,05,31,13,41,21.20
2009,05,31,13,42,21.10
2009,05,31,13,43,21.10
2009,05,31,13,44,21.10
2009,05,31,13,45,21.10
2009,05,31,13,46,21.20
2009,05,31,13,47,21.20
2009,05,31,13,48,21.20
2009,05,31,13,49,21.20
2009,05,31,13,50,21.20
2009,05,31,13,51,21.20
2009,05,31,13,52,21.20
2009,05,31,13,53,21.30
2009,05,31,13,54,21.40
2009,05,31,13,55,21.50
2009,05,31,13,56,21.60
2009,05,31,13,57,21.60
2009,05,31,13,58,21.70
2009,05,31,13,59,21.80
2009,05,31,14,00,21.90
2009,05,31,14,01,21.80
2009,05,31,14,02,21.80
2009,05,31,14,03,21.70
2009,05,31,14,04,21.70
2009,05,31,14,05,21.60
2009,05,31,14,06,21.60
2009,05,31,14,07,21.70
2009,05,31,14,08,21.70
2009,05,31,14,09,21.80
2009,05,31,14,10,21.80
2009,05,31,14,11,21.80
2009,05,31,14,12,21.80
2009,05,31,14,13,21.70
2009,05,31,14,14,21.70
2009,05,31,14,15,21.60
2009,05,31,14,16,21.60
2009,05,31,14,17,21.60
2009,05,31,14,18,21.70
2009,05,31,14,19,21.70
2009,05,31,14,20,21.70
2009,05,31,14,21,21.70
2009,05,31,14,22,21.70
2009,05,31,14,23,21.60
2009,05,31,14,24,21.70
2009,05,31,14,25,21.80
2009,05,31,14,26,21.80
2009,05,31,14,27,21.70
2009,05,31,14,28,21.70
2009,05,31,14,29,21.70
2009,05,31,14,30,21.60
2009,05,31,14,31,21.70
2009,05,31,14,32,21.80
2009,05,31,14,33,21.90
2009,05,31,14,34,22.00
2009,05,31,14,35,22.00
2009,05,31,14,36,21.80
2009,05,31,14,37,21.80
2009,05,31,14,38,21.70
2009,05,31,14,39,21.80
2009,05,31,14,40,21.80
2009,05,31,14,41,21.80
2009,05,31,14,42,21.90
2009,05,31,14,43,21.90
2009,05,31,14,44,22.00
2009,05,31,14,45,22.00
2009,05,31,14,46,22.10
2009,05,31,14,47,22.20
2009,05,31,14,48,22.30
2009,05,31,14,49,22.40
2009,05,31,14,50,22.40
2009,05,31,14,51,22.40
2009,05,31,14,52,22.40
2009,05,31,14,53,22.40
2009,05,31,14,54,22.40
2009,05,31,14,55,22.50
2009,05,31,14,56,22.60
2009,05,31,14,57,22.80
2009,05,31,14,58,22.90
2009,05,31,14,59,22.90
2009,05,31,15,00,23.10
2009,05,31,15,01,23.10
2009,05,31,15,02,23.10
2009,05,31,15,03,23.00
2009,05,31,15,04,22.90
2009,05,31,15,05,22.90
2009,05,31,15,06,22.90
2009,05,31,15,07,22.80
2009,05,31,15,08,22.80
2009,05,31,15,09,22.70
2009,05,31,15,10,22.80
2009,05,31,15,11,22.80
2009,05,31,15,12,22.90
2009,05,31,15,13,23.00
2009,05,31,15,14,23.10
2009,05,31,15,15,23.20
2009,05,31,15,16,23.20
2009,05,31,15,17,23.20
2009,05,31,15,18,23.20
2009,05,31,15,19,23.30
2009,05,31,15,20,23.30
2009,05,31,15,21,23.20
2009,05,31,15,22,23.20
2009,05,31,15,23,23.30
2009,05,31,15,24,23.40
2009,05,31,15,25,23.40
2009,05,31,15,26,23.30
2009,05,31,15,27,23.20
2009,05,31,15,28,23.20
2009,05,31,15,29,23.30
2009,05,31,15,30,23.30
2009,05,31,15,31,23.30
2009,05,31,15,32,23.40
2009,05,31,15,33,23.50
2009,05,31,15,34,23.60
2009,05,31,15,35,23.60
2009,05,31,15,36,23.70
2009,05,31,15,37,23.70
2009,05,31,15,38,23.70
2009,05,31,15,39,23.80
2009,05,31,15,40,23.80
2009,05,31,15,41,23.80
2009,05,31,15,42,23.80
2009,05,31,15,43,23.90
2009,05,31,15,44,23.90
2009,05,31,15,45,23.90
2009,05,31,15,46,23.90
2009,05,31,15,47,23.90
2009,05,31,15,48,23.90
2009,05,31,15,49,24.00
2009,05,31,15,50,24.00
2009,05,31,15,51,24.10
2009,05,31,15,52,24.10
2009,05,31,15,53,24.20
2009,05,31,15,54,24.20
2009,05,31,15,55,24.20
2009,05,31,15,56,24.10
2009,05,31,15,57,24.10
2009,05,31,15,58,24.00
2009,05,31,15,59,24.00
2009,05,31,16,00,24.00
2009,05,31,16,01,24.10
2009,05,31,16,02,24.00
2009,05,31,16,03,24.00
2009,05,31,16,04,23.90
2009,05,31,16,05,23.90
2009,05,31,16,06,23.80
2009,05,31,16,07,23.80
2009,05,31,16,08,23.70
2009,05,31,16,09,23.60
2009,05,31,16,10,23.60
2009,05,31,16,11,23.60
2009,05,31,16,12,23.40
2009,05,31,16,13,23.20
2009,05,31,16,14,22.90
2009,05,31,16,15,22.70
2009,05,31,16,16,22.60
2009,05,31,16,17,22.40
2009,05,31,16,18,22.30
2009,05,31,16,19,22.20
2009,05,31,16,20,22.20
2009,05,31,16,21,22.20
2009,05,31,16,22,22.20
2009,05,31,16,23,22.20
2009,05,31,16,24,22.30
2009,05,31,16,25,22.30
2009,05,31,16,26,22.40
2009,05,31,16,27,22.50
2009,05,31,16,28,22.70
2009,05,31,16,29,22.70
2009,05,31,16,30,22.70
2009,05,31,16,31,22.70
2009,05,31,16,32,22.70
2009,05,31,16,33,22.70
2009,05,31,16,34,22.80
2009,05,31,16,35,22.80
2009,05,31,16,36,22.90
2009,05,31,16,37,22.90
2009,05,31,16,38,23.00
2009,05,31,16,39,23.00
2009,05,31,16,40,23.00
2009,05,31,16,41,23.10
2009,05,31,16,42,23.20
2009,05,31,16,43,23.20
2009,05,31,16,44,23.20
2009,05,31,16,45,23.20
2009,05,31,16,46,23.10
2009,05,31,16,47,23.10
2009,05,31,16,48,23.00
2009,05,31,16,49,22.90
2009,05,31,16,50,22.80
2009,05,31,16,51,22.70
2009,05,31,16,52,22.70
2009,05,31,16,53,22.60
2009,05,31,16,54,22.50
2009,05,31,16,55,22.40
2009,05,31,16,56,22.30
2009,05,31,16,57,22.20
2009,05,31,16,58,22.10
2009,05,31,16,59,22.00
2009,05,31,17,00,21.80
2009,05,31,17,01,21.60
2009,05,31,17,02,21.40
2009,05,31,17,03,21.20
2009,05,31,17,04,21.00
2009,05,31,17,05,20.90
2009,05,31,17,06,20.80
2009,05,31,17,07,20.60
2009,05,31,17,08,20.50
2009,05,31,17,09,20.40
2009,05,31,17,10,20.30
2009,05,31,17,11,20.20
2009,05,31,17,12,20.10
2009,05,31,17,13,20.10
2009,05,31,17,14,20.20
2009,05,31,17,15,20.20
2009,05,31,17,16,20.30
2009,05,31,17,17,20.30
2009,05,31,17,18,20.40
2009,05,31,17,19,20.40
2009,05,31,17,20,20.30